Terminal Aerodrome Forecast
Issued by NWS Denver/Boulder, CO

Home | Current Version | Previous Version | Text Only | Print | Product List | Glossary On
Versions: 1 2 3 4 5 6 7 8 9 10 11 12 13 14 15 16 17 18 19 20 21 22 23 24 25 26 27 28 29 30 31 32 33 34 35 36 37 38 39 40 41 42 43 44 45 46 47 48 49 50
000
FTUS45 KBOU 272058 AAA
TAFDEN
TAF AMD
KDEN 272058Z 2721/2824 VRB06KT P6SM VCTS SCT070CB SCT120
      TEMPO 2722/2724 VRB20G30KT P6SM -TSRA BKN060CB
     FM280200 17010KT P6SM SCT080 BKN150
     FM280600 21008KT P6SM FEW100 SCT200
     FM281500 VRB05KT P6SM SCT080 BKN150
     FM282100 11008KT P6SM SCT050 BKN090=

USA.gov is the U.S. government's official web portal to all federal, state and local government web resources and services.